Year,Month,Day,Hour,Minute,Value (Times are PST for temperature in C)
2018,05,08,00,00,11.70
2018,05,08,00,01,11.70
2018,05,08,00,02,11.70
2018,05,08,00,03,11.70
2018,05,08,00,04,11.70
2018,05,08,00,05,11.70
2018,05,08,00,06,11.70
2018,05,08,00,07,11.60
2018,05,08,00,08,11.60
2018,05,08,00,09,11.60
2018,05,08,00,10,11.60
2018,05,08,00,11,11.60
2018,05,08,00,12,11.60
2018,05,08,00,13,11.60
2018,05,08,00,14,11.60
2018,05,08,00,15,11.60
2018,05,08,00,16,11.60
2018,05,08,00,17,11.50
2018,05,08,00,18,11.50
2018,05,08,00,19,11.50
2018,05,08,00,20,11.50
2018,05,08,00,21,11.50
2018,05,08,00,22,11.40
2018,05,08,00,23,11.40
2018,05,08,00,24,11.40
2018,05,08,00,25,11.40
2018,05,08,00,26,11.40
2018,05,08,00,27,11.40
2018,05,08,00,28,11.30
2018,05,08,00,29,11.30
2018,05,08,00,30,11.30
2018,05,08,00,31,11.30
2018,05,08,00,32,11.30
2018,05,08,00,33,11.30
2018,05,08,00,34,11.30
2018,05,08,00,35,11.20
2018,05,08,00,36,11.20
2018,05,08,00,37,11.20
2018,05,08,00,38,11.20
2018,05,08,00,39,11.20
2018,05,08,00,40,11.20
2018,05,08,00,41,11.20
2018,05,08,00,42,11.20
2018,05,08,00,43,11.20
2018,05,08,00,44,11.20
2018,05,08,00,45,11.20
2018,05,08,00,46,11.20
2018,05,08,00,47,11.20
2018,05,08,00,48,11.20
2018,05,08,00,49,11.20
2018,05,08,00,50,11.20
2018,05,08,00,51,11.20
2018,05,08,00,52,11.20
2018,05,08,00,53,11.30
2018,05,08,00,54,11.30
2018,05,08,00,55,11.30
2018,05,08,00,56,11.30
2018,05,08,00,57,11.30
2018,05,08,00,58,11.30
2018,05,08,00,59,11.30
2018,05,08,01,00,11.30
2018,05,08,01,01,11.30
2018,05,08,01,02,11.30
2018,05,08,01,03,11.30
2018,05,08,01,04,11.30
2018,05,08,01,05,11.30
2018,05,08,01,06,11.30
2018,05,08,01,07,11.30
2018,05,08,01,08,11.20
2018,05,08,01,09,11.20
2018,05,08,01,10,11.20
2018,05,08,01,11,11.20
2018,05,08,01,12,11.20
2018,05,08,01,13,11.20
2018,05,08,01,14,11.20
2018,05,08,01,15,11.20
2018,05,08,01,16,11.20
2018,05,08,01,17,11.20
2018,05,08,01,18,11.20
2018,05,08,01,19,11.20
2018,05,08,01,20,11.10
2018,05,08,01,21,11.10
2018,05,08,01,22,11.10
2018,05,08,01,23,11.10
2018,05,08,01,24,11.10
2018,05,08,01,25,11.10
2018,05,08,01,26,11.10
2018,05,08,01,27,11.10
2018,05,08,01,28,11.10
2018,05,08,01,29,11.10
2018,05,08,01,30,11.10
2018,05,08,01,31,11.00
2018,05,08,01,32,11.00
2018,05,08,01,33,11.00
2018,05,08,01,34,11.00
2018,05,08,01,35,11.00
2018,05,08,01,36,11.00
2018,05,08,01,37,11.00
2018,05,08,01,38,11.00
2018,05,08,01,39,11.00
2018,05,08,01,40,11.00
2018,05,08,01,41,10.90
2018,05,08,01,42,10.90
2018,05,08,01,43,10.90
2018,05,08,01,44,10.90
2018,05,08,01,45,10.90
2018,05,08,01,46,10.90
2018,05,08,01,47,10.90
2018,05,08,01,48,10.80
2018,05,08,01,49,10.80
2018,05,08,01,50,10.80
2018,05,08,01,51,10.80
2018,05,08,01,52,10.80
2018,05,08,01,53,10.80
2018,05,08,01,54,10.80
2018,05,08,01,55,10.80
2018,05,08,01,56,10.80
2018,05,08,01,57,10.80
2018,05,08,01,58,10.70
2018,05,08,01,59,10.70
2018,05,08,02,00,10.70
2018,05,08,02,01,10.70
2018,05,08,02,02,10.70
2018,05,08,02,03,10.70
2018,05,08,02,04,10.70
2018,05,08,02,05,10.70
2018,05,08,02,06,10.70
2018,05,08,02,07,10.70
2018,05,08,02,08,10.70
2018,05,08,02,09,10.70
2018,05,08,02,10,10.70
2018,05,08,02,11,10.70
2018,05,08,02,12,10.70
2018,05,08,02,13,10.70
2018,05,08,02,14,10.70
2018,05,08,02,15,10.70
2018,05,08,02,16,10.70
2018,05,08,02,17,10.70
2018,05,08,02,18,10.70
2018,05,08,02,19,10.60
2018,05,08,02,20,10.60
2018,05,08,02,21,10.60
2018,05,08,02,22,10.60
2018,05,08,02,23,10.60
2018,05,08,02,24,10.60
2018,05,08,02,25,10.60
2018,05,08,02,26,10.60
2018,05,08,02,27,10.60
2018,05,08,02,28,10.60
2018,05,08,02,29,10.60
2018,05,08,02,30,10.60
2018,05,08,02,31,10.60
2018,05,08,02,32,10.60
2018,05,08,02,33,10.60
2018,05,08,02,34,10.60
2018,05,08,02,35,10.60
2018,05,08,02,36,10.60
2018,05,08,02,37,10.60
2018,05,08,02,38,10.60
2018,05,08,02,39,10.60
2018,05,08,02,40,10.60
2018,05,08,02,41,10.60
2018,05,08,02,42,10.60
2018,05,08,02,43,10.60
2018,05,08,02,44,10.60
2018,05,08,02,45,10.60
2018,05,08,02,46,10.60
2018,05,08,02,47,10.60
2018,05,08,02,48,10.60
2018,05,08,02,49,10.60
2018,05,08,02,50,10.60
2018,05,08,02,51,10.50
2018,05,08,02,52,10.50
2018,05,08,02,53,10.50
2018,05,08,02,54,10.50
2018,05,08,02,55,10.50
2018,05,08,02,56,10.40
2018,05,08,02,57,10.40
2018,05,08,02,58,10.40
2018,05,08,02,59,10.40
2018,05,08,03,00,10.40
2018,05,08,03,01,10.30
2018,05,08,03,02,10.30
2018,05,08,03,03,10.30
2018,05,08,03,04,10.30
2018,05,08,03,05,10.30
2018,05,08,03,06,10.30
2018,05,08,03,07,10.30
2018,05,08,03,08,10.30
2018,05,08,03,09,10.30
2018,05,08,03,10,10.30
2018,05,08,03,11,10.30
2018,05,08,03,12,10.20
2018,05,08,03,13,10.20
2018,05,08,03,14,10.20
2018,05,08,03,15,10.20
2018,05,08,03,16,10.20
2018,05,08,03,17,10.20
2018,05,08,03,18,10.20
2018,05,08,03,19,10.20
2018,05,08,03,20,10.10
2018,05,08,03,21,10.10
2018,05,08,03,22,10.10
2018,05,08,03,23,10.10
2018,05,08,03,24,10.10
2018,05,08,03,25,10.10
2018,05,08,03,26,10.10
2018,05,08,03,27,10.10
2018,05,08,03,28,10.10
2018,05,08,03,29,10.10
2018,05,08,03,30,10.10
2018,05,08,03,31,10.00
2018,05,08,03,32,10.00
2018,05,08,03,33,10.00
2018,05,08,03,34,10.00
2018,05,08,03,35,10.00
2018,05,08,03,36,10.00
2018,05,08,03,37,9.90
2018,05,08,03,38,9.90
2018,05,08,03,39,9.90
2018,05,08,03,40,9.90
2018,05,08,03,41,9.90
2018,05,08,03,42,9.90
2018,05,08,03,43,9.90
2018,05,08,03,44,9.90
2018,05,08,03,45,9.90
2018,05,08,03,46,9.90
2018,05,08,03,47,9.90
2018,05,08,03,48,9.90
2018,05,08,03,49,9.90
2018,05,08,03,50,9.90
2018,05,08,03,51,9.90
2018,05,08,03,52,9.90
2018,05,08,03,53,9.90
2018,05,08,03,54,9.90
2018,05,08,03,55,9.80
2018,05,08,03,56,9.80
2018,05,08,03,57,9.80
2018,05,08,03,58,9.80
2018,05,08,03,59,9.80
2018,05,08,04,00,9.80
2018,05,08,04,01,9.80
2018,05,08,04,02,9.80
2018,05,08,04,03,9.80
2018,05,08,04,04,9.80
2018,05,08,04,05,9.80
2018,05,08,04,06,9.80
2018,05,08,04,07,9.80
2018,05,08,04,08,9.80
2018,05,08,04,09,9.80
2018,05,08,04,10,9.80
2018,05,08,04,11,9.80
2018,05,08,04,12,9.80
2018,05,08,04,13,9.80
2018,05,08,04,14,9.80
2018,05,08,04,15,9.80
2018,05,08,04,16,9.80
2018,05,08,04,17,9.90
2018,05,08,04,18,9.90
2018,05,08,04,19,9.90
2018,05,08,04,20,9.90
2018,05,08,04,21,9.90
2018,05,08,04,22,9.90
2018,05,08,04,23,10.00
2018,05,08,04,24,10.00
2018,05,08,04,25,10.00
2018,05,08,04,26,9.90
2018,05,08,04,27,9.90
2018,05,08,04,28,9.90
2018,05,08,04,29,9.90
2018,05,08,04,30,9.90
2018,05,08,04,31,9.90
2018,05,08,04,32,9.90
2018,05,08,04,33,9.90
2018,05,08,04,34,9.90
2018,05,08,04,35,9.90
2018,05,08,04,36,9.90
2018,05,08,04,37,9.90
2018,05,08,04,38,9.90
2018,05,08,04,39,9.90
2018,05,08,04,40,9.90
2018,05,08,04,41,9.90
2018,05,08,04,42,9.80
2018,05,08,04,43,9.80
2018,05,08,04,44,9.80
2018,05,08,04,45,9.80
2018,05,08,04,46,9.80
2018,05,08,04,47,9.80
2018,05,08,04,48,9.80
2018,05,08,04,49,9.70
2018,05,08,04,50,9.70
2018,05,08,04,51,9.70
2018,05,08,04,52,9.70
2018,05,08,04,53,9.70
2018,05,08,04,54,9.70
2018,05,08,04,55,9.70
2018,05,08,04,56,9.60
2018,05,08,04,57,9.60
2018,05,08,04,58,9.60
2018,05,08,04,59,9.60
2018,05,08,05,00,9.60
2018,05,08,05,01,9.60
2018,05,08,05,02,9.50
2018,05,08,05,03,9.50
2018,05,08,05,04,9.50
2018,05,08,05,05,9.40
2018,05,08,05,06,9.40
2018,05,08,05,07,9.40
2018,05,08,05,08,9.40
2018,05,08,05,09,9.40
2018,05,08,05,10,9.40
2018,05,08,05,11,9.40
2018,05,08,05,12,9.30
2018,05,08,05,13,9.30
2018,05,08,05,14,9.30
2018,05,08,05,15,9.30
2018,05,08,05,16,9.30
2018,05,08,05,17,9.30
2018,05,08,05,18,9.30
2018,05,08,05,19,9.30
2018,05,08,05,20,9.30
2018,05,08,05,21,9.30
2018,05,08,05,22,9.30
2018,05,08,05,23,9.30
2018,05,08,05,24,9.30
2018,05,08,05,25,9.30
2018,05,08,05,26,9.30
2018,05,08,05,27,9.30
2018,05,08,05,28,9.30
2018,05,08,05,29,9.30
2018,05,08,05,30,9.30
2018,05,08,05,31,9.40
2018,05,08,05,32,9.40
2018,05,08,05,33,9.40
2018,05,08,05,34,9.40
2018,05,08,05,35,9.40
2018,05,08,05,36,9.40
2018,05,08,05,37,9.40
2018,05,08,05,38,9.40
2018,05,08,05,39,9.40
2018,05,08,05,40,9.40
2018,05,08,05,41,9.40
2018,05,08,05,42,9.40
2018,05,08,05,43,9.40
2018,05,08,05,44,9.40
2018,05,08,05,45,9.40
2018,05,08,05,46,9.40
2018,05,08,05,47,9.40
2018,05,08,05,48,9.40
2018,05,08,05,49,9.40
2018,05,08,05,50,9.40
2018,05,08,05,51,9.40
2018,05,08,05,52,9.40
2018,05,08,05,53,9.40
2018,05,08,05,54,9.40
2018,05,08,05,55,9.40
2018,05,08,05,56,9.40
2018,05,08,05,57,9.40
2018,05,08,05,58,9.40
2018,05,08,05,59,9.50
2018,05,08,06,00,9.50
2018,05,08,06,01,9.50
2018,05,08,06,02,9.50
2018,05,08,06,03,9.50
2018,05,08,06,04,9.50
2018,05,08,06,05,9.50
2018,05,08,06,06,9.50
2018,05,08,06,07,9.50
2018,05,08,06,08,9.50
2018,05,08,06,09,9.50
2018,05,08,06,10,9.50
2018,05,08,06,11,9.60
2018,05,08,06,12,9.60
2018,05,08,06,13,9.60
2018,05,08,06,14,9.60
2018,05,08,06,15,9.60
2018,05,08,06,16,9.60
2018,05,08,06,17,9.60
2018,05,08,06,18,9.60
2018,05,08,06,19,9.60
2018,05,08,06,20,9.60
2018,05,08,06,21,9.60
2018,05,08,06,22,9.70
2018,05,08,06,23,9.70
2018,05,08,06,24,9.70
2018,05,08,06,25,9.80
2018,05,08,06,26,9.80
2018,05,08,06,27,9.80
2018,05,08,06,28,9.80
2018,05,08,06,29,9.80
2018,05,08,06,30,9.80
2018,05,08,06,31,9.80
2018,05,08,06,32,9.90
2018,05,08,06,33,9.90
2018,05,08,06,34,9.90
2018,05,08,06,35,9.90
2018,05,08,06,36,9.90
2018,05,08,06,37,9.90
2018,05,08,06,38,10.00
2018,05,08,06,39,10.00
2018,05,08,06,40,10.00
2018,05,08,06,41,10.10
2018,05,08,06,42,10.10
2018,05,08,06,43,10.20
2018,05,08,06,44,10.30
2018,05,08,06,45,10.30
2018,05,08,06,46,10.40
2018,05,08,06,47,10.50
2018,05,08,06,48,10.60
2018,05,08,06,49,10.70
2018,05,08,06,50,10.80
2018,05,08,06,51,10.80
2018,05,08,06,52,10.90
2018,05,08,06,53,10.90
2018,05,08,06,54,11.00
2018,05,08,06,55,11.00
2018,05,08,06,56,11.00
2018,05,08,06,57,10.90
2018,05,08,06,58,10.90
2018,05,08,06,59,11.00
2018,05,08,07,00,11.00
2018,05,08,07,01,11.00
2018,05,08,07,02,11.10
2018,05,08,07,03,11.10
2018,05,08,07,04,11.20
2018,05,08,07,05,11.20
2018,05,08,07,06,11.20
2018,05,08,07,07,11.20
2018,05,08,07,08,11.20
2018,05,08,07,09,11.20
2018,05,08,07,10,11.20
2018,05,08,07,11,11.20
2018,05,08,07,12,11.20
2018,05,08,07,13,11.20
2018,05,08,07,14,11.20
2018,05,08,07,15,11.20
2018,05,08,07,16,11.30
2018,05,08,07,17,11.30
2018,05,08,07,18,11.30
2018,05,08,07,19,11.40
2018,05,08,07,20,11.40
2018,05,08,07,21,11.40
2018,05,08,07,22,11.50
2018,05,08,07,23,11.50
2018,05,08,07,24,11.50
2018,05,08,07,25,11.60
2018,05,08,07,26,11.60
2018,05,08,07,27,11.60
2018,05,08,07,28,11.70
2018,05,08,07,29,11.70
2018,05,08,07,30,11.80
2018,05,08,07,31,11.80
2018,05,08,07,32,11.90
2018,05,08,07,33,11.90
2018,05,08,07,34,12.00
2018,05,08,07,35,12.10
2018,05,08,07,36,12.20
2018,05,08,07,37,12.30
2018,05,08,07,38,12.30
2018,05,08,07,39,12.40
2018,05,08,07,40,12.50
2018,05,08,07,41,12.60
2018,05,08,07,42,12.70
2018,05,08,07,43,12.80
2018,05,08,07,44,12.80
2018,05,08,07,45,12.90
2018,05,08,07,46,13.00
2018,05,08,07,47,13.10
2018,05,08,07,48,13.10
2018,05,08,07,49,13.20
2018,05,08,07,50,13.20
2018,05,08,07,51,13.30
2018,05,08,07,52,13.30
2018,05,08,07,53,13.40
2018,05,08,07,54,13.40
2018,05,08,07,55,13.50
2018,05,08,07,56,13.50
2018,05,08,07,57,13.60
2018,05,08,07,58,13.60
2018,05,08,07,59,13.70
2018,05,08,08,00,13.70
2018,05,08,08,01,13.80
2018,05,08,08,02,13.80
2018,05,08,08,03,13.80
2018,05,08,08,04,13.80
2018,05,08,08,05,13.80
2018,05,08,08,06,13.80
2018,05,08,08,07,13.80
2018,05,08,08,08,13.80
2018,05,08,08,09,13.80
2018,05,08,08,10,13.80
2018,05,08,08,11,13.80
2018,05,08,08,12,13.90
2018,05,08,08,13,13.90
2018,05,08,08,14,13.90
2018,05,08,08,15,13.90
2018,05,08,08,16,13.90
2018,05,08,08,17,13.90
2018,05,08,08,18,13.90
2018,05,08,08,19,14.00
2018,05,08,08,20,14.00
2018,05,08,08,21,14.00
2018,05,08,08,22,14.10
2018,05,08,08,23,14.20
2018,05,08,08,24,14.20
2018,05,08,08,25,14.30
2018,05,08,08,26,14.30
2018,05,08,08,27,14.40
2018,05,08,08,28,14.50
2018,05,08,08,29,14.50
2018,05,08,08,30,14.50
2018,05,08,08,31,14.50
2018,05,08,08,32,14.50
2018,05,08,08,33,14.50
2018,05,08,08,34,14.50
2018,05,08,08,35,14.60
2018,05,08,08,36,14.60
2018,05,08,08,37,14.60
2018,05,08,08,38,14.70
2018,05,08,08,39,14.70
2018,05,08,08,40,14.70
2018,05,08,08,41,14.80
2018,05,08,08,42,14.80
2018,05,08,08,43,14.80
2018,05,08,08,44,14.90
2018,05,08,08,45,14.90
2018,05,08,08,46,15.00
2018,05,08,08,47,15.00
2018,05,08,08,48,15.10
2018,05,08,08,49,15.10
2018,05,08,08,50,15.20
2018,05,08,08,51,15.20
2018,05,08,08,52,15.30
2018,05,08,08,53,15.30
2018,05,08,08,54,15.30
2018,05,08,08,55,15.40
2018,05,08,08,56,15.40
2018,05,08,08,57,15.50
2018,05,08,08,58,15.50
2018,05,08,08,59,15.60
2018,05,08,09,00,15.60
2018,05,08,09,01,15.70
2018,05,08,09,02,15.70
2018,05,08,09,03,15.70
2018,05,08,09,04,15.70
2018,05,08,09,05,15.80
2018,05,08,09,06,15.80
2018,05,08,09,07,15.90
2018,05,08,09,08,16.00
2018,05,08,09,09,16.10
2018,05,08,09,10,16.20
2018,05,08,09,11,16.30
2018,05,08,09,12,16.40
2018,05,08,09,13,16.50
2018,05,08,09,14,16.50
2018,05,08,09,15,16.50
2018,05,08,09,16,16.40
2018,05,08,09,17,16.50
2018,05,08,09,18,16.50
2018,05,08,09,19,16.40
2018,05,08,09,20,16.40
2018,05,08,09,21,16.50
2018,05,08,09,22,16.50
2018,05,08,09,23,16.60
2018,05,08,09,24,16.60
2018,05,08,09,25,16.60
2018,05,08,09,26,16.60
2018,05,08,09,27,16.70
2018,05,08,09,28,16.70
2018,05,08,09,29,16.70
2018,05,08,09,30,16.70
2018,05,08,09,31,16.80
2018,05,08,09,32,16.80
2018,05,08,09,33,16.80
2018,05,08,09,34,16.90
2018,05,08,09,35,16.90
2018,05,08,09,36,16.90
2018,05,08,09,37,16.90
2018,05,08,09,38,16.90
2018,05,08,09,39,17.00
2018,05,08,09,40,17.00
2018,05,08,09,41,17.10
2018,05,08,09,42,17.10
2018,05,08,09,43,17.10
2018,05,08,09,44,17.10
2018,05,08,09,45,17.10
2018,05,08,09,46,17.20
2018,05,08,09,47,17.20
2018,05,08,09,48,17.20
2018,05,08,09,49,17.10
2018,05,08,09,50,17.10
2018,05,08,09,51,17.10
2018,05,08,09,52,17.00
2018,05,08,09,53,17.00
2018,05,08,09,54,17.00
2018,05,08,09,55,17.00
2018,05,08,09,56,17.00
2018,05,08,09,57,17.00
2018,05,08,09,58,17.00
2018,05,08,09,59,17.00
2018,05,08,10,00,17.00
2018,05,08,10,01,17.00
2018,05,08,10,02,17.00
2018,05,08,10,03,16.90
2018,05,08,10,04,16.90
2018,05,08,10,05,16.90
2018,05,08,10,06,16.90
2018,05,08,10,07,16.80
2018,05,08,10,08,16.80
2018,05,08,10,09,16.80
2018,05,08,10,10,16.80
2018,05,08,10,11,16.80
2018,05,08,10,12,16.90
2018,05,08,10,13,17.00
2018,05,08,10,14,17.00
2018,05,08,10,15,17.10
2018,05,08,10,16,17.10
2018,05,08,10,17,17.20
2018,05,08,10,18,17.20
2018,05,08,10,19,17.20
2018,05,08,10,20,17.20
2018,05,08,10,21,17.20
2018,05,08,10,22,17.20
2018,05,08,10,23,17.30
2018,05,08,10,24,17.30
2018,05,08,10,25,17.30
2018,05,08,10,26,17.30
2018,05,08,10,27,17.30
2018,05,08,10,28,17.30
2018,05,08,10,29,17.30
2018,05,08,10,30,17.20
2018,05,08,10,31,17.20
2018,05,08,10,32,17.20
2018,05,08,10,33,17.20
2018,05,08,10,34,17.10
2018,05,08,10,35,17.10
2018,05,08,10,36,17.20
2018,05,08,10,37,17.10
2018,05,08,10,38,17.00
2018,05,08,10,39,17.00
2018,05,08,10,40,16.90
2018,05,08,10,41,16.90
2018,05,08,10,42,16.90
2018,05,08,10,43,16.90
2018,05,08,10,44,16.80
2018,05,08,10,45,16.80
2018,05,08,10,46,16.80
2018,05,08,10,47,16.80
2018,05,08,10,48,16.90
2018,05,08,10,49,17.00
2018,05,08,10,50,17.10
2018,05,08,10,51,17.10
2018,05,08,10,52,17.10
2018,05,08,10,53,17.10
2018,05,08,10,54,17.10
2018,05,08,10,55,17.10
2018,05,08,10,56,17.00
2018,05,08,10,57,17.00
2018,05,08,10,58,17.00
2018,05,08,10,59,17.00
2018,05,08,11,00,17.10
2018,05,08,11,01,17.10
2018,05,08,11,02,17.10
2018,05,08,11,03,17.20
2018,05,08,11,04,17.20
2018,05,08,11,05,17.30
2018,05,08,11,06,17.30
2018,05,08,11,07,17.20
2018,05,08,11,08,17.20
2018,05,08,11,09,17.20
2018,05,08,11,10,17.20
2018,05,08,11,11,17.20
2018,05,08,11,12,17.30
2018,05,08,11,13,17.30
2018,05,08,11,14,17.30
2018,05,08,11,15,17.20
2018,05,08,11,16,17.20
2018,05,08,11,17,17.20
2018,05,08,11,18,17.20
2018,05,08,11,19,17.20
2018,05,08,11,20,17.20
2018,05,08,11,21,17.30
2018,05,08,11,22,17.30
2018,05,08,11,23,17.40
2018,05,08,11,24,17.40
2018,05,08,11,25,17.40
2018,05,08,11,26,17.50
2018,05,08,11,27,17.50
2018,05,08,11,28,17.50
2018,05,08,11,29,17.60
2018,05,08,11,30,17.60
2018,05,08,11,31,17.60
2018,05,08,11,32,17.60
2018,05,08,11,33,17.60
2018,05,08,11,34,17.70
2018,05,08,11,35,17.70
2018,05,08,11,36,17.80
2018,05,08,11,37,17.80
2018,05,08,11,38,17.90
2018,05,08,11,39,17.90
2018,05,08,11,40,18.10
2018,05,08,11,41,18.20
2018,05,08,11,42,18.30
2018,05,08,11,43,18.40
2018,05,08,11,44,18.40
2018,05,08,11,45,18.40
2018,05,08,11,46,18.40
2018,05,08,11,47,18.40
2018,05,08,11,48,18.50
2018,05,08,11,49,18.60
2018,05,08,11,50,18.70
2018,05,08,11,51,18.80
2018,05,08,11,52,18.90
2018,05,08,11,53,19.00
2018,05,08,11,54,19.10
2018,05,08,11,55,19.20
2018,05,08,11,56,19.30
2018,05,08,11,57,19.40
2018,05,08,11,58,19.40
2018,05,08,11,59,19.40
2018,05,08,12,00,19.40
2018,05,08,12,01,19.40
2018,05,08,12,02,19.40
2018,05,08,12,03,19.30
2018,05,08,12,04,19.30
2018,05,08,12,05,19.30
2018,05,08,12,06,19.30
2018,05,08,12,07,19.40
2018,05,08,12,08,19.50
2018,05,08,12,09,19.60
2018,05,08,12,10,19.70
2018,05,08,12,11,19.80
2018,05,08,12,12,19.70
2018,05,08,12,13,19.70
2018,05,08,12,14,19.70
2018,05,08,12,15,19.70
2018,05,08,12,16,19.70
2018,05,08,12,17,19.70
2018,05,08,12,18,19.70
2018,05,08,12,19,19.60
2018,05,08,12,20,19.70
2018,05,08,12,21,19.60
2018,05,08,12,22,19.60
2018,05,08,12,23,19.50
2018,05,08,12,24,19.40
2018,05,08,12,25,19.40
2018,05,08,12,26,19.40
2018,05,08,12,27,19.50
2018,05,08,12,28,19.60
2018,05,08,12,29,19.70
2018,05,08,12,30,19.80
2018,05,08,12,31,19.80
2018,05,08,12,32,19.90
2018,05,08,12,33,20.00
2018,05,08,12,34,20.10
2018,05,08,12,35,20.10
2018,05,08,12,36,20.10
2018,05,08,12,37,20.00
2018,05,08,12,38,20.10
2018,05,08,12,39,20.20
2018,05,08,12,40,20.20
2018,05,08,12,41,20.00
2018,05,08,12,42,19.90
2018,05,08,12,43,19.80
2018,05,08,12,44,19.80
2018,05,08,12,45,19.70
2018,05,08,12,46,19.80
2018,05,08,12,47,19.90
2018,05,08,12,48,19.90
2018,05,08,12,49,20.00
2018,05,08,12,50,20.10
2018,05,08,12,51,20.10
2018,05,08,12,52,20.10
2018,05,08,12,53,20.10
2018,05,08,12,54,20.20
2018,05,08,12,55,20.30
2018,05,08,12,56,20.30
2018,05,08,12,57,20.40
2018,05,08,12,58,20.40
2018,05,08,12,59,20.50
2018,05,08,13,00,20.60
2018,05,08,13,01,20.70
2018,05,08,13,02,20.70
2018,05,08,13,03,20.60
2018,05,08,13,04,20.60
2018,05,08,13,05,20.70
2018,05,08,13,06,20.70
2018,05,08,13,07,20.80
2018,05,08,13,08,20.80
2018,05,08,13,09,20.80
2018,05,08,13,10,20.80
2018,05,08,13,11,20.90
2018,05,08,13,12,20.90
2018,05,08,13,13,21.00
2018,05,08,13,14,21.10
2018,05,08,13,15,21.10
2018,05,08,13,16,21.20
2018,05,08,13,17,21.20
2018,05,08,13,18,21.00
2018,05,08,13,19,20.80
2018,05,08,13,20,20.60
2018,05,08,13,21,20.50
2018,05,08,13,22,20.50
2018,05,08,13,23,20.50
2018,05,08,13,24,20.60
2018,05,08,13,25,20.60
2018,05,08,13,26,20.70
2018,05,08,13,27,20.80
2018,05,08,13,28,20.80
2018,05,08,13,29,20.90
2018,05,08,13,30,20.90
2018,05,08,13,31,20.90
2018,05,08,13,32,20.90
2018,05,08,13,33,20.80
2018,05,08,13,34,20.90
2018,05,08,13,35,20.90
2018,05,08,13,36,21.00
2018,05,08,13,37,21.10
2018,05,08,13,38,21.20
2018,05,08,13,39,21.20
2018,05,08,13,40,21.20
2018,05,08,13,41,21.20
2018,05,08,13,42,21.20
2018,05,08,13,43,21.20
2018,05,08,13,44,21.20
2018,05,08,13,45,21.10
2018,05,08,13,46,21.10
2018,05,08,13,47,21.10
2018,05,08,13,48,21.10
2018,05,08,13,49,21.10
2018,05,08,13,50,21.20
2018,05,08,13,51,21.30
2018,05,08,13,52,21.40
2018,05,08,13,53,21.40
2018,05,08,13,54,21.40
2018,05,08,13,55,21.40
2018,05,08,13,56,21.50
2018,05,08,13,57,21.60
2018,05,08,13,58,21.60
2018,05,08,13,59,21.60
2018,05,08,14,00,21.60
2018,05,08,14,01,21.60
2018,05,08,14,02,21.70
2018,05,08,14,03,21.70
2018,05,08,14,04,21.70
2018,05,08,14,05,21.70
2018,05,08,14,06,21.70
2018,05,08,14,07,21.70
2018,05,08,14,08,21.70
2018,05,08,14,09,21.70
2018,05,08,14,10,21.70
2018,05,08,14,11,21.60
2018,05,08,14,12,21.60
2018,05,08,14,13,21.60
2018,05,08,14,14,21.70
2018,05,08,14,15,21.70
2018,05,08,14,16,21.80
2018,05,08,14,17,21.60
2018,05,08,14,18,21.20
2018,05,08,14,19,20.50
2018,05,08,14,20,19.80
2018,05,08,14,21,19.30
2018,05,08,14,22,18.90
2018,05,08,14,23,18.60
2018,05,08,14,24,18.30
2018,05,08,14,25,18.20
2018,05,08,14,26,18.10
2018,05,08,14,27,18.00
2018,05,08,14,28,17.90
2018,05,08,14,29,17.80
2018,05,08,14,30,17.80
2018,05,08,14,31,17.80
2018,05,08,14,32,17.80
2018,05,08,14,33,17.80
2018,05,08,14,34,17.80
2018,05,08,14,35,17.70
2018,05,08,14,36,17.70
2018,05,08,14,37,17.70
2018,05,08,14,38,17.70
2018,05,08,14,39,17.80
2018,05,08,14,40,17.80
2018,05,08,14,41,17.80
2018,05,08,14,42,17.80
2018,05,08,14,43,17.80
2018,05,08,14,44,17.70
2018,05,08,14,45,17.70
2018,05,08,14,46,17.60
2018,05,08,14,47,17.50
2018,05,08,14,48,17.40
2018,05,08,14,49,17.20
2018,05,08,14,50,17.00
2018,05,08,14,51,16.90
2018,05,08,14,52,16.70
2018,05,08,14,53,16.70
2018,05,08,14,54,16.60
2018,05,08,14,55,16.70
2018,05,08,14,56,16.70
2018,05,08,14,57,16.70
2018,05,08,14,58,16.70
2018,05,08,14,59,16.70
2018,05,08,15,00,16.80
2018,05,08,15,01,16.80
2018,05,08,15,02,17.00
2018,05,08,15,03,17.10
2018,05,08,15,04,17.20
2018,05,08,15,05,17.40
2018,05,08,15,06,17.40
2018,05,08,15,07,17.50
2018,05,08,15,08,17.50
2018,05,08,15,09,17.60
2018,05,08,15,10,17.50
2018,05,08,15,11,17.40
2018,05,08,15,12,17.40
2018,05,08,15,13,17.30
2018,05,08,15,14,17.20
2018,05,08,15,15,17.20
2018,05,08,15,16,17.20
2018,05,08,15,17,17.20
2018,05,08,15,18,17.30
2018,05,08,15,19,17.30
2018,05,08,15,20,17.30
2018,05,08,15,21,17.30
2018,05,08,15,22,17.30
2018,05,08,15,23,17.30
2018,05,08,15,24,17.40
2018,05,08,15,25,17.30
2018,05,08,15,26,17.30
2018,05,08,15,27,17.30
2018,05,08,15,28,17.20
2018,05,08,15,29,17.20
2018,05,08,15,30,17.10
2018,05,08,15,31,17.00
2018,05,08,15,32,16.90
2018,05,08,15,33,16.80
2018,05,08,15,34,16.60
2018,05,08,15,35,16.50
2018,05,08,15,36,16.50
2018,05,08,15,37,16.40
2018,05,08,15,38,16.40
2018,05,08,15,39,16.40
2018,05,08,15,40,16.40
2018,05,08,15,41,16.30
2018,05,08,15,42,16.30
2018,05,08,15,43,16.20
2018,05,08,15,44,16.20
2018,05,08,15,45,16.30
2018,05,08,15,46,16.30
2018,05,08,15,47,16.40
2018,05,08,15,48,16.40
2018,05,08,15,49,16.50
2018,05,08,15,50,16.50
2018,05,08,15,51,16.60
2018,05,08,15,52,16.60
2018,05,08,15,53,16.70
2018,05,08,15,54,16.80
2018,05,08,15,55,16.90
2018,05,08,15,56,17.00
2018,05,08,15,57,17.10
2018,05,08,15,58,17.20
2018,05,08,15,59,17.20
2018,05,08,16,00,17.20
2018,05,08,16,01,17.30
2018,05,08,16,02,17.30
2018,05,08,16,03,17.30
2018,05,08,16,04,17.30
2018,05,08,16,05,17.30
2018,05,08,16,06,17.30
2018,05,08,16,07,17.40
2018,05,08,16,08,17.40
2018,05,08,16,09,17.50
2018,05,08,16,10,17.50
2018,05,08,16,11,17.50
2018,05,08,16,12,17.50
2018,05,08,16,13,17.60
2018,05,08,16,14,17.60
2018,05,08,16,15,17.60
2018,05,08,16,16,17.70
2018,05,08,16,17,17.70
2018,05,08,16,18,17.70
2018,05,08,16,19,17.80
2018,05,08,16,20,17.80
2018,05,08,16,21,17.80
2018,05,08,16,22,17.80
2018,05,08,16,23,17.80
2018,05,08,16,24,17.90
2018,05,08,16,25,17.90
2018,05,08,16,26,18.00
2018,05,08,16,27,18.10
2018,05,08,16,28,18.20
2018,05,08,16,29,18.20
2018,05,08,16,30,18.30
2018,05,08,16,31,18.30
2018,05,08,16,32,18.30
2018,05,08,16,33,18.30
2018,05,08,16,34,18.20
2018,05,08,16,35,18.20
2018,05,08,16,36,18.20
2018,05,08,16,37,18.20
2018,05,08,16,38,18.30
2018,05,08,16,39,18.40
2018,05,08,16,40,18.50
2018,05,08,16,41,18.50
2018,05,08,16,42,18.60
2018,05,08,16,43,18.60
2018,05,08,16,44,18.60
2018,05,08,16,45,18.60
2018,05,08,16,46,18.70
2018,05,08,16,47,18.80
2018,05,08,16,48,18.90
2018,05,08,16,49,19.00
2018,05,08,16,50,19.00
2018,05,08,16,51,19.10
2018,05,08,16,52,19.20
2018,05,08,16,53,19.30
2018,05,08,16,54,19.30
2018,05,08,16,55,19.40
2018,05,08,16,56,19.50
2018,05,08,16,57,19.60
2018,05,08,16,58,19.70
2018,05,08,16,59,19.80
2018,05,08,17,00,19.80
2018,05,08,17,01,19.80
2018,05,08,17,02,19.70
2018,05,08,17,03,19.60
2018,05,08,17,04,19.50
2018,05,08,17,05,19.50
2018,05,08,17,06,19.50
2018,05,08,17,07,19.40
2018,05,08,17,08,19.30
2018,05,08,17,09,19.30
2018,05,08,17,10,19.20
2018,05,08,17,11,19.20
2018,05,08,17,12,19.20
2018,05,08,17,13,19.20
2018,05,08,17,14,19.20
2018,05,08,17,15,19.20
2018,05,08,17,16,19.20
2018,05,08,17,17,19.10
2018,05,08,17,18,19.10
2018,05,08,17,19,19.00
2018,05,08,17,20,19.00
2018,05,08,17,21,18.90
2018,05,08,17,22,18.80
2018,05,08,17,23,18.80
2018,05,08,17,24,18.80
2018,05,08,17,25,18.80
2018,05,08,17,26,18.80
2018,05,08,17,27,18.80